Tracking 19709 objects as of 19-Jun-2019
HD Live streaming from Space Station
objects crossing your sky now

COSMOS 2526

Track COSMOS 2526 now!


NORAD ID: 43432
Int'l Code: 2018-037A
Perigee: 35,791.9 km
Apogee: 35,796.4 km
Inclination: 0.0 °
Period: 1,436.1 minutes
Semi major axis: 42165 km
RCS: Unknown
Launch date: April 18, 2018
Source: Commonwealth of Independent States (former USSR) (CIS)
Launch site: TYURATAM MISSILE AND SPACE COMPLEX (TTMTR)
aabbcc
Your satellite tracking list
Your tracking list is empty




NASA's NSSDC Master Catalog

Two Line Element Set (TLE):
1 43432U 18037A   19169.84006706 -.00000352 +00000-0 +00000-0 0  9993
2 43432 000.0289 077.6945 0000534 052.9920 206.5758 01.00270247004352
Source of the keplerian elements: AFSPC